Location: *
(45.1961°N, 1.9694°E)
Time: 07:19:33
(UTC+00:00)

Cosmos 1048 Rocket - Pass Details

Date: 25 August 2019
Orbit: 744 x 791 km, 74.0° (Epoch: 16 September)

Event Time Altitude Azimuth Distance (km) Brightness Sun altitude
Rises 21:07:33 0° 340° (NNW) 3,196 8.3 -22.7°
Reaches altitude 10° 21:09:56 10° 343° (NNW) 2,270 7.3 -23.0°
Maximum altitude 21:15:03 69° 67° (ENE) 805 3.9 -23.7°
Enters shadow 21:15:35 63° 106° (ESE) 835 3.9 -23.7°
